Meteopurmerend
purmerend
Purmerend - Baaienwijk



My webcam  My webcam


Onweer radar Meer informatie blitzortung!


Regen radar Meer informatie rain snow radar


Bezoek onze andere website:

CandyAppleRed WebdesignWebdesign Purmerend Candy Apple Red

MeteopurmerendBlog

Template documentation
and downloads



Het weer levert geen direct gevaar op.    Er zijn geen waarschuwingen afgegeven.

15 daagse weersverwachting Badalona (ES)

  • Overzicht
  • Per uur
  • 15 dagen
  • Extra
  • Vergelijk
  • Kaarten
  • Dagkaart
  • Meer »
  • Info
  • Statistieken
  • Directe link
    Temp 6h Neerslag Wind  
 08:08     19:04    Daglengte: 10:56 Vandaag
14:00
23°
 
4
20:00
20°
 
3
 08:10     19:02    Daglengte: 10:52 Morgen
02:00
19°
 
1
08:00
19°
5.5 mm
2
warningclass
14:00
22°
11.0 mm
6
20:00
19°
1.2 mm
3
 08:11     19:01    Daglengte: 10:50 Maandag 21 Okt
02:00
15°
 
3
08:00
14°
 
2
14:00
18°
 
3
20:00
16°
5.3 mm
2
 08:12     18:59    Daglengte: 10:47 Dinsdag 22 Okt
02:00
16°
6.0 mm
2
Locatie info
Region: Cataluña
Latitude: 41.4505°N
Longitude: 2.2449°E
16 masl
Postcode: 08911
Temp/Neerslag /Baro Onweer/Dauwpunt
    Temp Baro 1h Neerslag Dauwpunt Wind UV Bewolking  
 08:08     19:04    Daglengte: 10:56 Vandaag
10:00
18°
1010.6 hPa   14.1°
1
Windvlaag: -0.2 m/s
13%
11:00
21°
1010.4 hPa   15.1°
1
Windvlaag: -0.7 m/s
19%
12:00
22°
1010.0 hPa   16.3°
1
Windvlaag: -0.7 m/s
26%
13:00
23°
1009.4 hPa   17.0°
3
Windvlaag: 2.2 m/s
22%
14:00
23°
1008.6 hPa   17.5°
4
Windvlaag: 3.2 m/s
19%
15:00
23°
1007.9 hPa
14%
18.0°
4
Windvlaag: 3.6 m/s
14%
16:00
23°
1007.4 hPa
17%
17.9°
5
Windvlaag: 3.9 m/s
21%
17:00
22°
1007.0 hPa
18%
17.7°
5
Windvlaag: 4.3 m/s
9%
18:00
22°
1007.0 hPa
15%
17.9°
5
Windvlaag: 3.6 m/s
9%
19:00
21°
1007.0 hPa
30%
18.0°
4
Windvlaag: 3.3 m/s
7%
20:00
20°
1007.2 hPa
31%
17.8°
3
Windvlaag: 2.5 m/s
13%
21:00
20°
1007.3 hPa
30%
17.8°
2
Windvlaag: 1.8 m/s
16%
22:00
19°
1007.4 hPa
18%
17.3°
1
Windvlaag: 0.9 m/s
7%
23:00
19°
1007.6 hPa
35%
17.1°
1
Windvlaag: -0.3 m/s
27%
 08:10     19:02    Daglengte: 10:52 Morgen
00:00
19°
1007.4 hPa
42%
17.1°
1
Windvlaag: -0.8 m/s
25%
01:00
19°
1007.1 hPa
21%
17.2°
1
Windvlaag: -0 m/s
30%
02:00
19°
1007.0 hPa
78%
17.3°
1
Windvlaag: -0.2 m/s
33%
03:00
19°
1006.5 hPa 0.4 mm
82%
17.5°
2
Windvlaag: -0.7 m/s
62% warningclass
04:00
19°
1005.9 hPa 1.1 mm
82%
17.5°
2
Windvlaag: -0.4 m/s
77% warningclass
05:00
19°
1005.5 hPa 1.1 mm
82%
17.6°
2
Windvlaag: 0.3 m/s
76% warningclass
06:00
19°
1005.4 hPa 1.1 mm
82%
17.6°
2
Windvlaag: 0 m/s
80% warningclass
07:00
19°
1005.4 hPa 1.0 mm
82%
17.9°
2
Windvlaag: -0.1 m/s
59% warningclass
08:00
19°
1005.4 hPa 0.8 mm
82%
17.7°
2
Windvlaag: 0.6 m/s
54% warningclass
09:00
19°
1005.7 hPa 1.4 mm
82%
17.5°
2
Windvlaag: 1 m/s
67% warningclass
10:00
20°
1006.5 hPa 2.6 mm
82%
18.1°
3
Windvlaag: 3.5 m/s
37% warningclass
11:00
20°
1006.9 hPa 1.8 mm
82%
15.1°
3
Windvlaag: 4.1 m/s
41% warningclass
12:00
22°
1006.9 hPa 1.4 mm
82%
15.4°
5
Windvlaag: 6.2 m/s
39% warningclass
13:00
21°
1007.2 hPa 2.2 mm
82%
14.2°
6
Windvlaag: 6.2 m/s
56% warningclass
14:00
22°
1007.3 hPa 1.7 mm
82%
12.9°
6
Windvlaag: 4.9 m/s
52%
15:00
22°
1007.4 hPa
81%
12.3°
5
Windvlaag: 4.8 m/s
56%
16:00
21°
1007.8 hPa 1.2 mm
76%
11.6°
5
Windvlaag: 4.1 m/s
47%
17:00
21°
1008.2 hPa
78%
11.6°
5
Windvlaag: 2.2 m/s
57%
18:00
20°
1008.8 hPa
82%
11.8°
5
Windvlaag: 1.6 m/s
45%
19:00
19°
1009.4 hPa
75%
11.8°
3
Windvlaag: 1 m/s
60%
20:00
19°
1010.4 hPa
73%
11.9°
3
Windvlaag: 0.7 m/s
48%
21:00
19°
1011.4 hPa
62%
12.2°
2
Windvlaag: 1.2 m/s
58%
22:00
18°
1012.0 hPa
27%
12.6°
3
Windvlaag: 1.2 m/s
51%
23:00
18°
1012.7 hPa
80%
12.4°
2
Windvlaag: 1.2 m/s
57%
 08:11     19:01    Daglengte: 10:50 Maandag 21 Okt
00:00
17°
1013.2 hPa
82%
11.9°
2
Windvlaag: 0.8 m/s
67%
01:00
16°
1013.6 hPa
71%
11.6°
2
Windvlaag: 0.8 m/s
64%
02:00
15°
1014.0 hPa
68%
10.9°
3
Windvlaag: 0.8 m/s
28%
03:00
15°
1014.5 hPa
75%
9.8°
2
Windvlaag: 0.6 m/s
32%
04:00
15°
1014.5 hPa
32%
8.5°
2
Windvlaag: -0 m/s
32%
05:00
15°
1014.1 hPa
27%
8.0°
3
Windvlaag: -0.6 m/s
72%
06:00
15°
1014.6 hPa
29%
8.2°
2
Windvlaag: -0.5 m/s
88%
07:00
14°
1015.1 hPa
32%
8.5°
2
Windvlaag: -0.7 m/s
95%
08:00
14°
1015.5 hPa
45%
8.8°
2
Windvlaag: -0.4 m/s
99%
09:00
15°
1016.4 hPa
81%
9.2°
1
Windvlaag: -0.6 m/s
98%
10:00
15°
1017.4 hPa
79%
9.6°
1
Windvlaag: -0.8 m/s
99%
11:00
16°
1017.8 hPa
53%
9.7°
2
Windvlaag: -0.5 m/s
99%
12:00
17°
1018.2 hPa
41%
10.1°
2
Windvlaag: -0.8 m/s
93%
13:00
18°
1018.3 hPa
95%
10.2°
2
Windvlaag: -0.8 m/s
97%
14:00
18°
1018.2 hPa
90%
11.0°
3
Windvlaag: -0.3 m/s
98%
15:00
18°
1018.5 hPa 1.1 mm
100%
11.0°
3
Windvlaag: -0.2 m/s
99%
16:00
18°
1018.5 hPa
100%
10.9°
3
Windvlaag: 0.3 m/s
99%
17:00
17°
1018.4 hPa 1.2 mm
100%
11.6°
3
Windvlaag: 0.9 m/s
98%
18:00
17°
1018.5 hPa 1.0 mm
100%
12.2°
3
Windvlaag: 1 m/s
97%
19:00
17°
1018.6 hPa 0.8 mm
100%
12.2°
3
Windvlaag: 0.6 m/s
98%
20:00
16°
1019.2 hPa 1.1 mm
100%
12.0°
2
Windvlaag: 0.3 m/s
99%
21:00
16°
1019.3 hPa 1.2 mm
100%
11.8°
2
Windvlaag: -0 m/s
99%
22:00
16°
1019.0 hPa
100%
11.5°
2
Windvlaag: -0.1 m/s
100%
23:00
16°
1019.0 hPa 1.2 mm
100%
11.4°
2
Windvlaag: -0.1 m/s
99%
 08:12     18:59    Daglengte: 10:47 Dinsdag 22 Okt
00:00
16°
1019.0 hPa 1.1 mm
100%
11.3°
2
Windvlaag: -0.2 m/s
99%
01:00
16°
1018.7 hPa 1.2 mm
100%
11.0°
2
Windvlaag: -0.4 m/s
100%
02:00
16°
1018.4 hPa 1.3 mm
100%
10.7°
2
Windvlaag: -0.3 m/s
97%
03:00
16°
1017.3 hPa 3.1 mm
100%
11.1°
3
Windvlaag: 7.8 m/s
96%
04:00
16°
1016.4 hPa 3.1 mm
100%
11.2°
5
Windvlaag: 7.8 m/s
100%
05:00
16°
1015.4 hPa 3.1 mm
100%
11.4°
6
Windvlaag: 9.6 m/s
100%
06:00
16°
1014.4 hPa 3.1 mm
100%
11.6°
7
Windvlaag: 9.3 m/s
100%
07:00
16°
1013.5 hPa 3.1 mm
100%
11.9°
8
Windvlaag: 14.3 m/s
100%
08:00
16°
1012.5 hPa 3.1 mm
100%
12.2°
9
Windvlaag: 2.4 m/s
100%
09:00
17°
1012.5 hPa   14.0°
8
Windvlaag: 0 m/s
100%
Temp/Neerslag /Baro Onweer/Dauwpunt
    Temp Baro Neerslag Dauwpunt Wind Bewolking  
 08:08     19:04    Daglengte: 10:56 Vandaag
11:00
21°
1010.4 hPa   15.1°
1
19%
14:00
23°
1008.6 hPa   17.5°
4
19%
17:00
22°
1007.0 hPa   17.7°
5
9%
20:00
20°
1007.2 hPa   17.8°
3
13%
23:00
19°
1007.6 hPa   17.1°
1
27%
 08:10     19:02    Daglengte: 10:52 Morgen
02:00
19°
1007.0 hPa   17.3°
1
33%
05:00
19°
1005.5 hPa 2.6 mm 17.6°
2
76% warningclass
08:00
19°
1005.4 hPa 3.0 mm 17.7°
2
54% warningclass
11:00
20°
1006.9 hPa 5.7 mm 15.1°
3
41% warningclass
14:00
22°
1007.3 hPa 5.3 mm 12.9°
6
52%
17:00
21°
1008.2 hPa 1.2 mm 11.6°
5
57%
20:00
19°
1010.4 hPa   11.9°
3
48%
23:00
18°
1012.7 hPa   12.4°
2
57%
 08:11     19:01    Daglengte: 10:50 Maandag 21 Okt
02:00
15°
1014.0 hPa   10.9°
3
28%
05:00
15°
1014.1 hPa   8.0°
3
72%
08:00
14°
1015.5 hPa   8.8°
2
99%
11:00
16°
1017.8 hPa   9.7°
2
99%
14:00
18°
1018.2 hPa   11.0°
3
98%
17:00
17°
1018.4 hPa 2.3 mm 11.6°
3
98%
20:00
16°
1019.2 hPa 3.0 mm 12.0°
2
99%
23:00
16°
1019.0 hPa 2.3 mm 11.4°
2
99%
 08:12     18:59    Daglengte: 10:47 Dinsdag 22 Okt
02:00
16°
1018.4 hPa 3.7 mm 10.7°
2
97%
05:00
16°
1015.4 hPa 9.2 mm 11.4°
6
100%
08:00
16°
1012.5 hPa 9.2 mm 12.2°
9
100%
11:00
17°
1012.9 hPa 42.2 mm 14.9°
6
92%
14:00
18°
1013.2 hPa 43.8 mm 15.9°
5
92%
17:00
18°
1012.8 hPa 43.8 mm 15.8°
5
90%
20:00
18°
1012.3 hPa 43.8 mm 15.7°
4
89%
23:00
18°
1010.9 hPa 43.8 mm 16.1°
5
90%
 08:13     18:58    Daglengte: 10:45 Woensdag 23 Okt
02:00
18°
1009.2 hPa 51.6 mm 16.7°
6
92%
05:00
18°
1007.3 hPa 81.8 mm 16.9°
4
91%
08:00
18°
1005.7 hPa 112.9 mm 17.0°
2
91%
11:00
19°
1004.6 hPa 122.7 mm 17.3°
4
91%
14:00
19°
1003.5 hPa 130.2 mm 17.2°
4
91%
17:00
18°
1004.0 hPa 136.4 mm 15.1°
4
77%
20:00
17°
1004.5 hPa 140.8 mm 13.2°
4
63%
23:00
15°
1005.9 hPa 145.1 mm 11.9°
3
50%
 08:14     18:57    Daglengte: 10:43 Donderdag 24 Okt
02:00
14°
1007.3 hPa 148.7 mm 10.5°
2
37%
05:00
13°
1007.7 hPa 158.5 mm 10.5°
2
39%
08:00
13°
1008.1 hPa 164.7 mm 10.3°
2
41%
11:00
15°
1009.0 hPa 169.1 mm 9.7°
4
65%
14:00
16°
1009.9 hPa 171.9 mm 8.6°
6
89%
17:00
15°
1010.3 hPa 173.2 mm 8.7°
5
87%
20:00
14°
1010.7 hPa 173.6 mm 8.7°
4
85%
23:00
14°
1011.2 hPa 173.8 mm 8.5°
4
70%
 08:15     18:55    Daglengte: 10:40 Vrijdag 25 Okt
02:00
13°
1011.5 hPa 175.0 mm 8.2°
3
55%
05:00
13°
1012.6 hPa 177.3 mm 8.4°
2
32%
08:00
12°
1013.7 hPa 177.4 mm 8.5°
2
9%
11:00
16°
1014.2 hPa 177.4 mm 9.6°
2
45%
14:00
20°
1014.6 hPa 177.4 mm 9.9°
2
82%
17:00
19°
1015.6 hPa 177.4 mm 11.6°
2
71%
20:00
18°
1016.7 hPa 177.4 mm 12.8°
2
60%
23:00
17°
1017.1 hPa 177.4 mm 12.0°
2
76%
 08:17     18:54    Daglengte: 10:37 Zaterdag 26 Okt
02:00
17°
1017.3 hPa 177.4 mm 11.2°
2
92%
05:00
16°
1016.9 hPa 177.4 mm 10.9°
2
73%
08:00
15°
1016.6 hPa 354.8 mm 10.6°
2
54%
14:00
21°
1015.9 hPa 354.8 mm 14.0°
1
6%
20:00
19°
1015.8 hPa 354.9 mm 14.6°
1
36%
 08:18     18:52    Daglengte: 10:34 Zondag 27 Okt
02:00
16°
1016.7 hPa 354.9 mm 12.6°
1
32%
07:00
16°
1016.8 hPa 354.9 mm 12.4°
2
24%
13:00
21°
1017.1 hPa 354.9 mm 13.8°
5
44%
19:00
18°
1017.3 hPa 354.9 mm 13.7°
2
1%
 08:19     18:51    Daglengte: 10:32 Maandag 28 Okt
01:00
14°
1017.6 hPa 354.9 mm 12.1°
2
9%
07:00
14°
1016.8 hPa 354.9 mm 11.0°
1
2%
13:00
21°
1017.3 hPa 355.0 mm 13.7°
3
0%
19:00
19°
1013.1 hPa 355.2 mm 14.6°
2
0%
 08:20     18:50    Daglengte: 10:30 Dinsdag 29 Okt
01:00
18°
1013.8 hPa 358.5 mm 14.3°
1
0%
07:00
17°
1016.9 hPa 0.9 mm 13.5°
2
25%
13:00
20°
1017.0 hPa 0.3 mm 14.1°
2
23%
19:00
18°
1016.6 hPa 0.3 mm 14.5°
1
20%
 08:21     18:48    Daglengte: 10:27 Woensdag 30 Okt
01:00
17°
1017.2 hPa 0.3 mm 13.9°
1
24%
07:00
17°
1016.9 hPa 0.1 mm 13.5°
2
22%
13:00
20°
1017.2 hPa   13.8°
1
18%
19:00
18°
1016.6 hPa   14.5°
1
20%
 08:23     18:47    Daglengte: 10:24 Donderdag 31 Okt
01:00
17°
1016.8 hPa 0.2 mm 13.9°
1
24%
07:00
17°
1015.9 hPa 0.4 mm 13.0°
2
12%
13:00
21°
1016.0 hPa   13.7°
2
11%
19:00
18°
1015.6 hPa   14.3°
2
14%
 08:24     18:46    Daglengte: 10:22 Vrijdag 01 Nov
01:00
17°
1016.1 hPa   13.1°
2
13%
07:00
17°
1016.3 hPa   12.0°
2
16%
13:00
20°
1017.2 hPa   12.5°
1
24%
19:00
17°
1017.3 hPa   13.3°
1
21%
 08:25     18:45    Daglengte: 10:20 Zaterdag 02 Nov
01:00
16°
1017.8 hPa 0.1 mm 12.6°
1
22%
07:00
16°
1017.5 hPa 0.2 mm 11.7°
1
24%
13:00
19°
1017.4 hPa 0.2 mm 12.1°
1
33%
19:00
17°
1017.1 hPa 0.7 mm 13.1°
1
34%
 08:26     18:43    Daglengte: 10:17 Zondag 03 Nov
01:00
16°
1017.2 hPa 1.0 mm 12.3°
1
30%
07:00
16°
1016.5 hPa 0.7 mm 11.4°
1
25%
  CAPE Lifted Index Hail Supercell Tornado SRH 3km CL BTM PRES CL TOP PRES Swiss DWD icon SMHI TS
 08:08     19:04    Daglengte: 10:56 Vandaag
10:00 0 J/kg 3.5 K 0 % 0 % 0 % 0 m²/s² 0 0 7.31 1
11:00 0 J/kg 3.0 K 0 % 0 % 0 % 0 m²/s² 0 0 7.02 1
12:00 0 J/kg 2.5 K 0 % 0 % 0 % 0 m²/s² 0 0 7.09 1
13:00 0 J/kg 1.6 K 0 % 0 % 0 % 0 m²/s² 0 0 6.07 1
14:00 30 J/kg -0.4 K 0 % 0 % 0 % 0 m²/s² 0 0 3.95 2
15:00 614 J/kg -2.6 K 0 % 0 % 0 % 0 m²/s² 0 0 1.99 2
16:00 1017 J/kg -3.4 K 0 % 0 % 0 % 0 m²/s² 0 0 1.43 2
17:00 1032 J/kg -3.5 K 0 % 0 % 0 % 0 m²/s² 0 0 1.72 2
18:00 988 J/kg -3.3 K 0 % 0 % 0 % 0 m²/s² 0 0 2.04 2
19:00 892 J/kg -3.1 K 0 % 0 % 0 % 0 m²/s² 0 0 2 2
20:00 732 J/kg -2.6 K 0 % 0 % 0 % 0 m²/s² 0 0 2.35 0
21:00 770 J/kg -2.8 K 0 % 0 % 0 % 0 m²/s² 0 0 1.91 1
22:00 782 J/kg -2.8 K 0 % 0 % 0 % 0 m²/s² 0 0 0.92 2
23:00 889 J/kg -3.4 K 0 % 0 % 0 % 0 m²/s² 0 0 -0.55 1
 08:10     19:02    Daglengte: 10:52 Morgen
00:00 1061 J/kg -4.1 K 0 % 0 % 0 % 0 m²/s² 0 0 -1.43 1
01:00 1188 J/kg -4.5 K 0 % 0 % 0 % 0 m²/s² 0 0 -1.83 2
02:00 1373 J/kg -5.0 K 0 % 0 % 0 % 0 m²/s² 0 0 -2.27 80
03:00 1751 J/kg -5.6 K 0 % 0 % 0 % 0 m²/s² 0 0 -2.78 95
04:00 1981 J/kg -6.3 K 0 % 0 % 0 % 0 m²/s² 0 0 -3.3 95
05:00 1987 J/kg -6.5 K 0 % 0 % 0 % 0 m²/s² 0 0 -3.59 95
06:00 1927 J/kg -6.4 K 0 % 0 % 0 % 0 m²/s² 0 0 -4.3 95
07:00 2124 J/kg -7.0 K 0 % 0 % 0 % 0 m²/s² 0 0 -5.53 95
08:00 2315 J/kg -7.5 K 0 % 0 % 0 % 0 m²/s² 0 0 -5.97 95
09:00 2300 J/kg -7.5 K 0 % 0 % 0 % 0 m²/s² 0 0 -5.91 95
10:00 1645 J/kg -6.1 K 0 % 0 % 0 % 0 m²/s² 0 0 -5.5 95
11:00 185 J/kg -1.2 K 0 % 0 % 0 % 0 m²/s² 0 0 -0.54 95
12:00 83 J/kg 0.1 K 0 % 0 % 0 % 0 m²/s² 0 0 0.67 95
13:00 0 J/kg 3.6 K 0 % 0 % 0 % 0 m²/s² 0 0 4.89 95
14:00 0 J/kg 3.4 K 0 % 0 % 0 % 0 m²/s² 0 0 4.96 81
15:00 0 J/kg 3.5 K 0 % 0 % 0 % 0 m²/s² 0 0 5.12 80
16:00 1 J/kg 3.2 K 0 % 0 % 0 % 0 m²/s² 0 0 7.1 80
17:00 0 J/kg 2.4 K 0 % 0 % 0 % 0 m²/s² 0 0 7.47 80
18:00 42 J/kg 1.8 K 0 % 0 % 0 % 0 m²/s² 0 0 7.86 80
19:00 60 J/kg 1.2 K 0 % 0 % 0 % 0 m²/s² 0 0 7.29 3
20:00 0 J/kg 5.6 K 0 % 0 % 0 % 0 m²/s² 0 0 12.02 2
21:00 0 J/kg 6.8 K 0 % 0 % 0 % 0 m²/s² 0 0 12.17 2
22:00 0 J/kg 7.6 K 0 % 0 % 0 % 0 m²/s² 0 0 12.94 3
23:00 0 J/kg 7.9 K 0 % 0 % 0 % 0 m²/s² 0 0 13.72 2
 08:11     19:01    Daglengte: 10:50 Maandag 21 Okt
00:00 0 J/kg 7.6 K 0 % 0 % 0 % 0 m²/s² 0 0 13.57 80
01:00 0 J/kg 7.1 K 0 % 0 % 0 % 0 m²/s² 0 0 13.43 3
02:00 0 J/kg 7.1 K 0 % 0 % 0 % 0 m²/s² 0 0 12.89 3
03:00 0 J/kg 7.2 K 0 % 0 % 0 % 0 m²/s² 0 0 11.49 3
04:00 0 J/kg 7.3 K 0 % 0 % 0 % 0 m²/s² 0 0 11.29 3
05:00 0 J/kg 6.6 K 0 % 0 % 0 % 0 m²/s² 0 0 11.01 3
06:00 0 J/kg 7.3 K 0 % 0 % 0 % 0 m²/s² 0 0 11.38 3
07:00 2 J/kg 5.3 K 0 % 0 % 0 % 0 m²/s² 0 0 9.5 3
08:00 2 J/kg 3.4 K 0 % 0 % 0 % 0 m²/s² 0 0 7.06 3
09:00 0 J/kg 2.1 K 0 % 0 % 0 % 0 m²/s² 0 0 6.06 80
10:00 0 J/kg 2.5 K 0 % 0 % 0 % 0 m²/s² 0 0 6.79 3
11:00 0 J/kg 2.9 K 0 % 0 % 0 % 0 m²/s² 0 0 7.43 3
12:00 0 J/kg 3.4 K 0 % 0 % 0 % 0 m²/s² 0 0 8.17 2
13:00 2 J/kg 4.2 K 0 % 0 % 0 % 0 m²/s² 0 0 9.21 3
14:00 1 J/kg 4.4 K 0 % 0 % 0 % 0 m²/s² 0 0 9.41 3
15:00 4 J/kg 3.6 K 0 % 0 % 0 % 0 m²/s² 0 0 8.52
16:00 15 J/kg 3.0 K 0 % 0 % 0 % 0 m²/s² 0 0 7.02
17:00 58 J/kg 2.8 K 0 % 0 % 0 % 0 m²/s² 0 0 5.2
18:00 132 J/kg 1.9 K 0 % 0 % 0 % 0 m²/s² 0 0 4.03
19:00 222 J/kg 1.1 K 0 % 0 % 0 % 0 m²/s² 0 0 3.23
20:00 372 J/kg 0.4 K 0 % 0 % 0 % 0 m²/s² 0 0 2.65
21:00 329 J/kg 0.5 K 0 % 0 % 0 % 0 m²/s² 0 0 2.57
22:00 146 J/kg 1.6 K 0 % 0 % 0 % 0 m²/s² 0 0 3.85
23:00 97 J/kg 1.9 K 0 % 0 % 0 % 0 m²/s² 0 0 3.91
 08:12     18:59    Daglengte: 10:47 Dinsdag 22 Okt
00:00 73 J/kg 2.1 K 0 % 0 % 0 % 0 m²/s² 0 0 4.32
01:00 13 J/kg 3.8 K 0 % 0 % 0 % 0 m²/s² 0 0 6.53
02:00 1 J/kg 5.4 K 0 % 0 % 0 % 0 m²/s² 0 0 8.7
03:00 0 J/kg 7.0 K 0 % 0 % 0 % 0 m²/s² 0 0 10.15
04:00 0 J/kg 6.5 K 0 % 0 % 0 % 0 m²/s² 0 0 9.62
05:00 0 J/kg 5.8 K 0 % 0 % 0 % 0 m²/s² 0 0 9.04
06:00 0 J/kg 5.1 K 0 % 0 % 0 % 0 m²/s² 0 0 7.62
07:00 0 J/kg 5.1 K 0 % 0 % 0 % 0 m²/s² 0 0 7.08
08:00 0 J/kg 5.0 K 0 % 0 % 0 % 0 m²/s² 0 0 5.87
09:00 0 J/kg 0.0 K 0 % 0 % 0 % 0 m²/s² 0 0 13.83
Temp Baro Wind Neerslag
  EWN Forecast EWN WRFDA DWD ICON FMI HIRLAM MET Norway GFS
 08:08     19:04    Daglengte: 10:56 Vandaag
11:00 20.6° 1010.4 hPa 0.7 m/s 0.0 mm 21.1° 1010.8 hPa 1.7 m/s 0.0 mm 20.2° 1011.1 hPa 0.3 m/s -1.9 mm 21.4° 1010.3 hPa 0.8 m/s 0.0 mm 20.7° 1010.3 hPa 0.5 m/s 0.0 mm 22.0° 1010.0 hPa 2.2 m/s
14:00 23.0° 1008.6 hPa 4.1 m/s 0.0 mm 22.9° 1008.6 hPa 3.8 m/s 0.0 mm 22.3° 1009.4 hPa 2.5 m/s 0.0 mm 24.3° 1008.5 hPa 4.7 m/s 0.0 mm 23.0° 1008.3 hPa 5.1 m/s 0.0 mm 23.9° 1008.6 hPa 5.3 m/s
17:00 22.4° 1007.0 hPa 5.3 m/s 0.0 mm 22.5° 1006.7 hPa 4.4 m/s 0.0 mm 22.3° 1007.6 hPa 6.1 m/s 0.0 mm 23.8° 1006.8 hPa 5.9 m/s 0.0 mm 22.4° 1007.0 hPa 5.3 m/s 0.0 mm 23.4° 1006.6 hPa 6.1 m/s
20:00 20.5° 1007.2 hPa 2.6 m/s 0.0 mm 21.6° 1006.6 hPa 3.2 m/s 0.0 mm 20.8° 1008.1 hPa 3.9 m/s 0.1 mm 21.0° 1006.9 hPa 2.2 m/s 0.0 mm 20.3° 1007.1 hPa 2.6 m/s 0.0 mm 22.1° 1006.7 hPa 4.5 m/s
23:00 19.2° 1007.6 hPa 0.9 m/s 0.0 mm 21.1° 1006.5 hPa 1.8 m/s 0.0 mm 19.8° 1008.0 hPa 0.9 m/s 0.1 mm 18.2° 1007.4 hPa 1.0 m/s 0.0 mm 19.4° 1007.6 hPa 0.4 m/s 0.0 mm 21.6° 1007.3 hPa 3.0 m/s
 08:10     19:02    Daglengte: 10:52 Morgen
02:00 19.2° 1007.0 hPa 1.1 m/s 0.0 mm 21.0° 1005.8 hPa 2.4 m/s 0.0 mm 19.5° 1007.8 hPa 1.2 m/s 0.2 mm 18.7° 1006.9 hPa 1.5 m/s 0.0 mm 19.6° 1006.9 hPa 0.8 m/s 0.0 mm 21.0° 1006.5 hPa 3.2 m/s
05:00 19.2° 1005.5 hPa 1.9 m/s 2.6 mm 21.3° 1004.1 hPa 5.6 m/s 3.0 mm 19.3° 1007.0 hPa 1.6 m/s 3.0 mm 18.6° 1005.1 hPa 1.4 m/s 0.0 mm 19.7° 1005.3 hPa 2.2 m/s 0.9 mm 20.7° 1004.7 hPa 3.2 m/s
08:00 19.1° 1005.4 hPa 2.1 m/s 3.0 mm 21.4° 1003.4 hPa 5.6 m/s 8.1 mm 19.3° 1007.2 hPa 2.2 m/s 3.9 mm 19.0° 1005.0 hPa 0.7 m/s 0.0 mm 19.1° 1005.3 hPa 2.1 m/s 0.6 mm 20.8° 1004.8 hPa 5.8 m/s
11:00 20.1° 1006.9 hPa 3.3 m/s 5.7 mm 22.8° 1005.0 hPa 11.1 m/s 9.1 mm 19.8° 1008.2 hPa 3.2 m/s 6.3 mm 18.0° 1007.8 hPa 6.6 m/s 0.0 mm 22.0° 1006.4 hPa 1.9 m/s 0.0 mm 21.6° 1006.6 hPa 5.6 m/s
14:00 21.7° 1007.3 hPa 5.6 m/s 5.3 mm 22.5° 1005.9 hPa 10.6 m/s 9.1 mm 20.5° 1007.7 hPa 4.9 m/s 7.0 mm 19.4° 1009.2 hPa 5.4 m/s 0.0 mm 23.1° 1007.3 hPa 5.9 m/s 0.3 mm 22.1° 1007.5 hPa 5.6 m/s
17:00 20.9° 1008.2 hPa 4.6 m/s 1.2 mm 21.3° 1006.4 hPa 9.6 m/s 9.1 mm 21.0° 1008.0 hPa 4.0 m/s 1.8 mm 18.8° 1010.6 hPa 3.7 m/s 0.0 mm 22.1° 1008.2 hPa 5.6 m/s 0.0 mm 21.0° 1008.8 hPa 5.2 m/s
20:00 19.1° 1010.4 hPa 2.5 m/s 0.0 mm 21.1° 1008.5 hPa 5.9 m/s 9.1 mm 19.5° 1010.8 hPa 0.9 m/s 2.0 mm 17.2° 1012.1 hPa 2.0 m/s 0.0 mm 20.1° 1010.4 hPa 4.1 m/s 0.0 mm 20.0° 1011.2 hPa 3.2 m/s
23:00 17.8° 1012.7 hPa 2.1 m/s 0.0 mm 18.4° 1011.2 hPa 6.8 m/s 9.1 mm 19.6° 1012.3 hPa 4.0 m/s 0.0 mm 13.6° 1014.8 hPa 1.8 m/s 0.0 mm 18.6° 1012.9 hPa 1.0 m/s 0.0 mm 19.5° 1014.0 hPa 4.1 m/s
 08:11     19:01    Daglengte: 10:50 Maandag 21 Okt
02:00 15.3° 1014.0 hPa 2.7 m/s 0.0 mm 17.6° 1012.5 hPa 5.9 m/s 9.1 mm 18.9° 1012.9 hPa 3.7 m/s 0.1 mm 11.9° 1016.0 hPa 1.9 m/s 0.0 mm 15.4° 1014.3 hPa 2.5 m/s 0.0 mm 19.1° 1014.7 hPa 1.0 m/s
05:00 15.2° 1014.1 hPa 2.7 m/s 0.0 mm 17.6° 1013.9 hPa 3.2 m/s 9.1 mm 17.7° 1013.3 hPa 0.9 m/s 0.0 mm 15.0° 1015.2 hPa 3.1 m/s 0.0 mm 18.6° 1015.4 hPa 1.5 m/s
08:00 14.5° 1015.5 hPa 1.5 m/s 0.0 mm 17.2° 1015.2 hPa 2.6 m/s 9.1 mm 17.4° 1014.9 hPa 1.4 m/s 0.0 mm 14.0° 1016.8 hPa 1.4 m/s 0.0 mm 17.4° 1016.9 hPa 2.3 m/s
11:00 16.4° 1017.8 hPa 1.6 m/s 0.0 mm 17.5° 1016.7 hPa 1.7 m/s 9.1 mm 18.6° 1016.6 hPa 1.4 m/s 0.1 mm 16.3° 1019.1 hPa 1.9 m/s 0.0 mm 16.0° 1018.4 hPa 3.3 m/s
14:00 17.8° 1018.2 hPa 2.9 m/s 0.0 mm 18.4° 1017.5 hPa 3.5 m/s 9.1 mm 20.0° 1017.6 hPa 0.3 m/s 0.1 mm 17.7° 1019.6 hPa 3.9 m/s 0.0 mm 16.0° 1019.1 hPa 2.6 m/s
17:00 17.3° 1018.4 hPa 3.4 m/s 2.3 mm 18.5° 1017.0 hPa 4.9 m/s 9.1 mm 17.4° 1019.1 hPa 3.6 m/s 0.0 mm 16.1° 1018.3 hPa 1.9 m/s
20:00 16.3° 1019.2 hPa 2.4 m/s 3.0 mm 18.2° 1017.8 hPa 5.3 m/s 9.1 mm 16.3° 1019.7 hPa 2.2 m/s 1.1 mm 15.8° 1019.5 hPa 1.8 m/s
23:00 16.0° 1019.0 hPa 2.3 m/s 2.3 mm 17.8° 1018.2 hPa 5.4 m/s 9.2 mm 16.1° 1019.0 hPa 2.2 m/s 16.0° 1019.5 hPa 2.6 m/s
 08:12     18:59    Daglengte: 10:47 Dinsdag 22 Okt
02:00 15.8° 1018.4 hPa 2.2 m/s 3.7 mm 17.5° 1018.0 hPa 4.0 m/s 9.2 mm 15.8° 1018.4 hPa 2.1 m/s 15.8° 1018.8 hPa 4.3 m/s
05:00 16.1° 1015.4 hPa 5.8 m/s 9.2 mm 17.6° 1016.0 hPa 7.4 m/s 9.2 mm 15.8° 1015.2 hPa 5.6 m/s 15.1° 1016.7 hPa 4.9 m/s
08:00 16.0° 1012.5 hPa 9.2 m/s 9.2 mm 17.5° 1015.1 hPa 10.7 m/s 9.2 mm 15.8° 1012.1 hPa 9.0 m/s 14.8° 1014.4 hPa 4.3 m/s
11:00 17.2° 1012.9 hPa 6.4 m/s 42.2 mm 17.4° 1012.9 hPa 6.5 m/s 14.4° 1012.6 hPa 5.2 m/s 42.2 mm
14:00 18.1° 1013.2 hPa 5.0 m/s 43.8 mm 18.2° 1013.3 hPa 5.3 m/s 16.7° 1012.6 hPa 2.2 m/s 43.8 mm
17:00 18.2° 1012.8 hPa 4.7 m/s 43.8 mm 18.3° 1012.8 hPa 5.0 m/s 17.1° 1012.0 hPa 1.3 m/s 43.8 mm
20:00 18.3° 1012.3 hPa 4.5 m/s 43.8 mm 18.4° 1012.4 hPa 4.8 m/s 16.9° 1011.6 hPa 1.2 m/s 43.8 mm
23:00 18.2° 1010.9 hPa 5.2 m/s 43.8 mm 18.3° 1010.8 hPa 5.6 m/s 17.2° 1012.0 hPa 1.0 m/s 43.8 mm
 08:13     18:58    Daglengte: 10:45 Woensdag 23 Okt
02:00 18.0° 1009.2 hPa 6.2 m/s 51.6 mm 18.2° 1009.3 hPa 6.4 m/s 15.4° 1008.3 hPa 4.1 m/s 51.6 mm
05:00 18.0° 1007.3 hPa 4.2 m/s 81.8 mm 18.1° 1007.6 hPa 4.1 m/s 15.9° 1003.5 hPa 6.1 m/s 81.8 mm
08:00 18.0° 1005.7 hPa 1.9 m/s 112.9 mm 18.1° 1006.0 hPa 1.7 m/s 17.4° 1002.2 hPa 4.5 m/s 112.9 mm
11:00 18.8° 1004.6 hPa 3.5 m/s 122.7 mm 18.6° 1005.1 hPa 2.6 m/s 21.1° 999.1 hPa 13.2 m/s 122.7 mm
14:00 19.2° 1003.5 hPa 4.4 m/s 130.2 mm 19.0° 1004.2 hPa 3.6 m/s 21.0° 995.7 hPa 12.8 m/s 130.2 mm
17:00 17.9° 1004.0 hPa 4.3 m/s 136.4 mm 17.8° 1004.7 hPa 3.6 m/s 19.7° 996.1 hPa 12.1 m/s 136.4 mm
20:00 16.6° 1004.5 hPa 4.1 m/s 140.8 mm 16.5° 1005.2 hPa 3.6 m/s 17.7° 996.8 hPa 9.3 m/s 140.8 mm
23:00 15.2° 1005.9 hPa 3.2 m/s 145.1 mm 15.0° 1006.6 hPa 2.8 m/s 17.5° 998.3 hPa 7.9 m/s 145.1 mm
 08:14     18:57    Daglengte: 10:43 Donderdag 24 Okt
02:00 13.8° 1007.3 hPa 2.3 m/s 148.7 mm 13.5° 1008.0 hPa 1.9 m/s 16.8° 999.4 hPa 7.2 m/s 148.7 mm
05:00 13.3° 1007.7 hPa 2.3 m/s 158.5 mm 12.9° 1008.4 hPa 1.8 m/s 17.4° 999.5 hPa 7.4 m/s 158.5 mm
08:00 12.8° 1008.1 hPa 1.9 m/s 164.7 mm 12.4° 1008.8 hPa 1.7 m/s 17.6° 1000.5 hPa 4.1 m/s 164.7 mm
11:00 14.6° 1009.0 hPa 4.0 m/s 169.1 mm 14.2° 1009.6 hPa 3.6 m/s 18.4° 1002.3 hPa 7.9 m/s 169.1 mm
14:00 16.3° 1009.9 hPa 5.8 m/s 171.9 mm 16.1° 1010.5 hPa 5.5 m/s 19.0° 1003.9 hPa 8.9 m/s 171.9 mm
17:00 15.3° 1010.3 hPa 5.1 m/s 173.2 mm 15.0° 1010.8 hPa 4.8 m/s 18.5° 1004.3 hPa 8.2 m/s 173.2 mm
20:00 14.2° 1010.7 hPa 4.4 m/s 173.6 mm 13.9° 1011.1 hPa 4.2 m/s 18.1° 1006.5 hPa 7.0 m/s 173.6 mm
23:00 13.8° 1011.2 hPa 3.7 m/s 173.8 mm 13.4° 1011.4 hPa 3.5 m/s 18.0° 1009.1 hPa 6.8 m/s 173.8 mm
 08:15     18:55    Daglengte: 10:40 Vrijdag 25 Okt
02:00 13.3° 1011.5 hPa 3.0 m/s 175.0 mm 12.9° 1011.6 hPa 2.7 m/s 17.5° 1010.3 hPa 6.4 m/s 175.0 mm
05:00 12.8° 1012.6 hPa 2.3 m/s 177.3 mm 12.4° 1012.7 hPa 2.3 m/s 17.4° 1011.6 hPa 2.7 m/s 177.3 mm
08:00 12.2° 1013.7 hPa 1.9 m/s 177.4 mm 11.8° 1013.7 hPa 1.9 m/s 17.0° 1013.1 hPa 2.2 m/s 177.4 mm
11:00 16.2° 1014.2 hPa 1.9 m/s 177.4 mm 16.0° 1014.2 hPa 1.9 m/s 18.6° 1014.2 hPa 2.5 m/s 177.4 mm
14:00 20.3° 1014.6 hPa 1.9 m/s 177.4 mm 20.2° 1014.6 hPa 1.9 m/s 21.7° 1014.4 hPa 2.3 m/s 177.4 mm
17:00 19.2° 1015.6 hPa 2.0 m/s 177.4 mm 18.9° 1015.8 hPa 1.9 m/s 21.6° 1013.7 hPa 3.5 m/s 177.4 mm
20:00 17.9° 1016.7 hPa 1.9 m/s 177.4 mm 17.7° 1016.9 hPa 1.8 m/s 19.7° 1014.4 hPa 2.7 m/s 177.4 mm
23:00 17.2° 1017.1 hPa 1.6 m/s 177.4 mm 17.0° 1017.2 hPa 1.6 m/s 19.3° 1015.6 hPa 0.6 m/s 177.4 mm
 08:17     18:54    Daglengte: 10:37 Zaterdag 26 Okt
02:00 16.6° 1017.3 hPa 1.5 m/s 177.4 mm 16.4° 1017.5 hPa 1.5 m/s 18.3° 1015.4 hPa 1.8 m/s 177.4 mm
05:00 15.7° 1016.9 hPa 1.6 m/s 177.4 mm 15.5° 1017.1 hPa 1.6 m/s 17.7° 1014.6 hPa 1.6 m/s 177.4 mm
08:00 14.8° 1016.6 hPa 1.8 m/s 177.4 mm 14.6° 1016.8 hPa 1.8 m/s 17.2° 1014.7 hPa 1.4 m/s 177.4 mm
14:00 21.1° 1015.9 hPa 1.3 m/s 177.4 mm 21.1° 1016.0 hPa 1.3 m/s 20.5° 1014.3 hPa 1.8 m/s 177.4 mm
20:00 18.6° 1015.8 hPa 1.4 m/s 177.5 mm 18.6° 1016.0 hPa 1.4 m/s 18.9° 1013.2 hPa 1.7 m/s 177.5 mm
 08:18     18:52    Daglengte: 10:34 Zondag 27 Okt
02:00 16.3° 1016.7 hPa 1.3 m/s 177.5 mm 16.2° 1017.0 hPa 1.4 m/s 17.9° 1013.8 hPa 0.7 m/s 177.5 mm
07:00 16.0° 1016.8 hPa 1.9 m/s 177.5 mm 15.9° 1017.1 hPa 2.0 m/s 16.9° 1013.3 hPa 1.1 m/s 177.5 mm
13:00 20.7° 1017.1 hPa 4.6 m/s 177.5 mm 20.7° 1017.5 hPa 4.8 m/s 20.5° 1013.0 hPa 1.9 m/s 177.5 mm
19:00 17.7° 1017.3 hPa 2.4 m/s 177.5 mm 17.5° 1017.8 hPa 2.4 m/s 19.4° 1012.2 hPa 2.1 m/s 177.5 mm
 08:19     18:51    Daglengte: 10:32 Maandag 28 Okt
01:00 14.3° 1017.6 hPa 1.5 m/s 177.5 mm 13.9° 1018.0 hPa 1.6 m/s 18.3° 1012.8 hPa 0.8 m/s 177.5 mm
07:00 14.0° 1016.8 hPa 1.4 m/s 177.5 mm 13.7° 1017.2 hPa 1.5 m/s 17.8° 1012.4 hPa 0.2 m/s 177.5 mm
13:00 20.8° 1017.3 hPa 3.1 m/s 177.5 mm 20.8° 1017.7 hPa 3.2 m/s 20.2° 1013.1 hPa 1.7 m/s 177.5 mm
19:00 18.8° 1013.1 hPa 1.7 m/s 177.7 mm 18.8° 1013.1 hPa 1.7 m/s 177.7 mm
 08:20     18:50    Daglengte: 10:30 Dinsdag 29 Okt
01:00 17.9° 1013.8 hPa 1.2 m/s 179.3 mm 17.9° 1013.8 hPa 1.2 m/s 179.3 mm
07:00 17.1° 1016.9 hPa 2.4 m/s 0.9 mm
13:00 20.4° 1017.0 hPa 1.9 m/s 0.3 mm
19:00 18.1° 1016.6 hPa 1.4 m/s 0.3 mm
 08:21     18:48    Daglengte: 10:27 Woensdag 30 Okt
01:00 17.4° 1017.2 hPa 1.2 m/s 0.3 mm
07:00 16.9° 1016.9 hPa 2.1 m/s 0.1 mm
13:00 20.3° 1017.2 hPa 1.0 m/s 0.0 mm
19:00 18.0° 1016.6 hPa 0.9 m/s 0.0 mm
 08:23     18:47    Daglengte: 10:24 Donderdag 31 Okt
01:00 17.4° 1016.8 hPa 0.8 m/s 0.2 mm
07:00 16.8° 1015.9 hPa 1.6 m/s 0.4 mm
13:00 20.6° 1016.0 hPa 2.1 m/s 0.0 mm
19:00 18.4° 1015.6 hPa 2.3 m/s 0.0 mm
 08:24     18:46    Daglengte: 10:22 Vrijdag 01 Nov
01:00 17.3° 1016.1 hPa 1.6 m/s 0.0 mm
07:00 16.6° 1016.3 hPa 2.0 m/s 0.0 mm
13:00 19.7° 1017.2 hPa 1.4 m/s 0.0 mm
19:00 17.3° 1017.3 hPa 1.1 m/s 0.0 mm
 08:25     18:45    Daglengte: 10:20 Zaterdag 02 Nov
01:00 16.4° 1017.8 hPa 0.8 m/s 0.1 mm
07:00 15.9° 1017.5 hPa 1.5 m/s 0.2 mm
13:00 19.0° 1017.4 hPa 1.3 m/s 0.2 mm
19:00 17.1° 1017.1 hPa 1.3 m/s 0.7 mm
 08:26     18:43    Daglengte: 10:17 Zondag 03 Nov
01:00 16.2° 1017.2 hPa 0.7 m/s 1.0 mm
07:00 15.5° 1016.5 hPa 1.2 m/s 0.7 mm
FMI Hirlam - 7.5 km EWN WRFDA - 12 km DWD ICON - 7 km GFS - 25 km Basiskaart






























































Updatetijd (Europe/Amsterdam) Resolutie Lengte Stap
FMI Hirlam 07:00, 13:00, 19:00, 01:00 7.5 km 49h 1h
EWN WRFDA 09:15, 15:15, 21:15, 03:15 12 km 73h 1h
DWD ICON 11:45, 17:45, 23:45, 05:45 7 km 75h 1h
GFS 08:45, 14:45, 20:45, 02:45 25 km 237h 3h
30+ mm
25-30 mm
20-25 mm
15-20 mm
10-15 mm
6-10 mm
4-6 mm
2-4 mm
1-2 mm
0.5-1 mm
0.2-0.5 mm
0.1-0.2 mm
30+ mm
25-30 mm
20-25 mm
15-20 mm
10-15 mm
6-10 mm
4-6 mm
2-4 mm
1-2 mm
0.5-1 mm
0.2-0.5 mm
0.1-0.2 mm
Sneeuwval
Natte sneeuw
Hagel
Vorst
30+ mm
25-30 mm
20-25 mm
15-20 mm
10-15 mm
6-10 mm
4-6 mm
2-4 mm
1-2 mm
0.5-1 mm
0.2-0.5 mm
0.1-0.2 mm
Sneeuwval
Natte sneeuw
Hagel
Vorst
Onweer
50 mm
40 mm
30 mm
26 mm
22 mm
18 mm
14 mm
10 mm
9 mm
8 mm
7 mm
6 mm
5 mm
4.5 mm
4 mm
3.5 mm
3 mm
2.5 mm
2 mm
1.5 mm
1 mm
0.8 mm
0.6 mm
0.4 mm
0.2 mm
0.05 mm
35°
30°
25°
20°
15°
10°
-5°
-10°
-15°
-20°
-25°
-30°
-35°
33> m/s
29 m/s
25 m/s
21 m/s
17 m/s
14 m/s
11 m/s
8 m/s
5 m/s
3 m/s
0 m/s
2600 J/kg
2400 J/kg
2200 J/kg
2000 J/kg
1800 J/kg
1600 J/kg
1400 J/kg
1200 J/kg
1000 J/kg
800 J/kg
600 J/kg
400 J/kg
200 J/kg
70 dBZ
65 dBZ
60 dBZ
55 dBZ
50 dBZ
45 dBZ
40 dBZ
35 dBZ
30 dBZ
25 dBZ
20 dBZ
15 dBZ
10 dBZ
5 dBZ
-1 K
-2 K
-3 K
-4 K
-5 K
-6 K
-7 K
-8 K
-9 K
950 m²/s²
900 m²/s²
850 m²/s²
800 m²/s²
750 m²/s²
700 m²/s²
650 m²/s²
600 m²/s²
550 m²/s²
500 m²/s²
450 m²/s²
400 m²/s²
350 m²/s²
300 m²/s²
250 m²/s²
200 m²/s²
150 m²/s²
100 m²/s²
46 m/s
44 m/s
42 m/s
40 m/s
38 m/s
36 m/s
34 m/s
32 m/s
30 m/s
28 m/s
26 m/s
24 m/s
22 m/s
20 m/s
16 m/s
12 m/s
8 m/s
4 m/s
30 m/s
28 m/s
26 m/s
24 m/s
22 m/s
20 m/s
18 m/s
16 m/s
14 m/s
12 m/s
10 m/s
8 m/s
6 m/s
4 m/s
2 m/s
3.0
2.8
2.6
2.4
2.2
2.0
1.8
1.6
1.4
1.2
1.0
0.8
0.6
0.4
0.2
15
14
13
12
11
10
9
8
7
6
5
4
3
2
1
90%
80%
70%
60%
50%
40%
30%
20%
10%
42
40
38
36
34
32
30
28
26
24
22
20
18
16
14
12
90+ cm
80-90 cm
70-80 cm
60-70 cm
50-60 cm
40-50 cm
30-40 cm
20-30 cm
10-20 cm
1-10 cm
Sneeuwval
Natte sneeuw
Regen
>120 mm
115 mm
110 mm
105 mm
100 mm
95 mm
90 mm
85 mm
80 mm
75 mm
70 mm
65 mm
60 mm
55 mm
50 mm
45 mm
45 mm
40 mm
35 mm
30 mm
25 mm
20 mm
15 mm
10 mm
5 mm
0.1 mm
960 hPa
880 hPa
800 hPa
720 hPa
640 hPa
560 hPa
584 gpdm
568 gpdm
552 gpdm
536 gpdm
520 gpdm
504 gpdm
488 gpdm
Extreem zwaar Noodweer Kans op onweer
15% 15% 5% 50% 15%

Dag




Kaart






35°
30°
25°
20°
15°
10°
-5°
-10°
-15°
-20°
-25°
-30°
-35°
33> m/s
29 m/s
25 m/s
21 m/s
17 m/s
14 m/s
11 m/s
8 m/s
5 m/s
3 m/s
0 m/s
Extreem zwaar Noodweer Kans op onweer
15% 15% 5% 50% 15%
>120 mm
115 mm
110 mm
105 mm
100 mm
95 mm
90 mm
85 mm
80 mm
75 mm
70 mm
65 mm
60 mm
55 mm
50 mm
45 mm
45 mm
40 mm
35 mm
30 mm
25 mm
20 mm
15 mm
10 mm
5 mm
0.1 mm
Onweer risico kaarten - De groene en gele kleur geeft de kans op onweer aan binnen 40 km van een punt. Oranje, rood en violet hebben hetzelfde niveau zoals je het ziet op estofex.org waaronder ook de kans op hagel en supercells.

dBZ - dBZ staat voor decibel ten opzichte van Z.

Cape - Convective available potential energy (CAPE), is de totale hoeveelheid energie die een luchtpakketje nodig heeft om zover mogelijk te stijgen in de atmosfeer.

K Index - K-Index wordt berekend door de Vertical Totals (VT) en het verschil tussen de 850 hPa temperatuur en de 700 hPa dauwpuntsdepressie (Tdd 700) bij elkaar op te tellen.

TT Index - Convectie index wordt gebruikt voor het voorspellen van zware buien of onweer.

WRF - The Weather Research and Forecasting (WRF) is een volgende generatie mesoscale numeriek weersvoorspelling systeem ontworpen om zowel de operationele planning als het atmosferisch onderzoek te dienen. WRF is a cooperatie tussen het National Center for Atmospheric Research (NCAR), National Centers for Environmental Prediction (NCEP), Forecast Systems Laboratory (FSL), Air Force Weather Agency (AFWA), Naval Research Laboratory, University of Oklahoma, en de Federal Aviation Administration (FAA). Deze software draait op onze server.

WRFDA - Een meer geavanceerde versie van WRF

Arome - Het 2.5 km Arome model. Verzorgd door het Noors Meteorologisch Instituut.

MET Norway - De proff-default 4km meteorological data is een beste keus selectie van meteorologische modellen gebruikt door met.no die zijn geïnterpoleerd tot een gemeenschappelijke dataset. Verzorgd door het Noorse Meteorologisch Instituut.

SMHI - Het Hirlam model verzorgd door het Zweeds meteorologisch instituut.

FMI - Het Hirlam model verzorgd door het Fins meteorologisch instituut. Dekking alleen Finland.

GFS - Het Global Forecast Systeem (GFS) is een wereldwijd numerieke weersvoorspelling computermodel, gerund door NOAA.

GEM-GDPS - Het GEM-GDPS is a wereldwijd numeriek weersvoorspelling computermodel verzorgd door het Canadees Meteorologisch Centrum.

Credits/Info: Dank aan Stefan Gofferje van sääkeskus.fi voor enkele formules van GrADS. Info: Wikipedia.

Betrouwbaarheid van de verwachting

NB! 2015-03-29: Rebuilding the accuracy-test!

EWNACC
Day 1 Good forecasts

Dag 1 Tmax

Dag 2 Tmax

Geladen verwachtingen TOP 50

Totaal geladen verwachtingen:
Plaats Latitude Longitude Verwachtingen Plaats Latitude Longitude Verwachtingen